Location: Paderno d�Adda
(45.6667°N, 9.4333°E)
Time: 14:38:16
(UTC+00:00)

In-Cosmos 22 - Pass Details

Date: 19 September 2020
Orbit: 785 x 876 km, 81.2° (Epoch: 30 October)

Event Time Altitude Azimuth Distance (km) Brightness Sun altitude
Rises 18:51:13 0° 349° (N) 3,288 7.7 -15.6°
Reaches altitude 10° 18:53:35 10° 350° (N) 2,357 6.9 -16.0°
Maximum altitude 18:58:54 86° 79° (E) 801 4.0 -16.9°
Drops below altitude 10° 19:04:15 10° 169° (S) 2,371 6.2 -17.8°
Enters shadow 19:04:33 - 169° (S) 2,485 6.3 -17.8°
